Regional Weather Roundup
Issued by NWS State College, PA

Home | Current Version | Previous Version | Graphics & Text | Print | Product List | Glossary Off
Versions: 1 2 3 4 5 6 7 8 9 10 11 12 13 14 15 16 17 18 19 20 21 22 23 24 25 26 27 28 29 30 31 32 33 34 35 36 37 38 39 40 41 42 43 44 45 46 47 48 49 50

300
ASUS41 KCTP 240903
RWRCTP

REGIONAL WEATHER ROUNDUP
NATIONAL WEATHER SERVICE STATE COLLEGE PA
500 AM EDT SAT JUN 24 2017

Note: "fair" indicates few or no clouds below 12,000 feet with no
significant weather and/or obstructions to visibility.

* = STATION THAT DOES NOT REPORT PRECIPITATION /E.G. RAIN...SNOW...ETC/
    THUNDER OR FOG.

PAZ002>004-007>009-013>016-020>023-029>032-241000-
WESTERN PENNSYLVANIA

CITY           SKY/WX    TMP DP  RH WIND       PRES   REMARKS
ERIE           CLOUDY    68  66  93 SW3       29.72R
MEADVILLE      CLEAR     64  63  96 W6        29.76R
FRANKLIN*      CLOUDY    63  61  94 W7        29.77R
NEW CASTLE     FAIR      65  64  97 W5        29.78R
BEAVER COUNTY  NOT AVBL
BUTLER*        PTCLDY    66  63  88 W7        29.77R
PITTSBURGH INT MOCLDY    67  66  97 W9        29.78R
PITTSBURGH     CLOUDY    67  63  87 W10       29.78R
INDIANA*       CLOUDY    66  66 100 NW7G18    29.77R
LATROBE        HVY RAIN  66  66 100 W10       29.78R
WASHINGTON CO* CLOUDY    66  64  94 W7        29.82R
$$

PAZ004>006-010>012-017>019-024>028-033>037-041-042-045-046-049>053-241000-
CENTRAL PENNSYLVANIA

CITY           SKY/WX    TMP DP  RH WIND       PRES   REMARKS
BRADFORD       CLOUDY    62  61  96 NW7       29.73R
DUBOIS         CLOUDY    63  59  87 NW8       29.73R
CLEARFIELD     LGT RAIN  67  65  93 NW10      29.71R FOG
JOHNSTOWN      FOG       64  64 100 W12G21    29.76R VSB 3/4
ALTOONA        CLOUDY    68  65  90 W8        29.73R
STATE COLLEGE  MOCLDY    67  65  94 S3        29.68R
WILLIAMSPORT   CLOUDY    70  69  97 W7        29.61S
SELINSGROVE    LGT RAIN  70  70 100 CALM      29.64R
FT INDIANTOWN  PTCLDY    69  69 100 W6        29.61F
CAPITAL CITY   CLOUDY    71  68  90 W5        29.62S
HARRISBURG     CLOUDY    71  70  96 NW8       29.62R FOG
YORK           CLOUDY    69  69 100 NW5       29.64R
$$

PAZ038>040-043-044-047-048-054-055-060>062-067>071-241000-
EASTERN PENNSYLVANIA

CITY           SKY/WX    TMP DP  RH WIND       PRES   REMARKS
SCRANTON       LGT RAIN  70  69  97 S6        29.61S
MOUNT POCONO   LGT RAIN  66  66 100 W6        29.65F
ALLENTOWN      RAIN      70  68  93 SW5       29.60F
QUAKERTOWN*    CLOUDY    70  70 100 N3        29.61F
READING        HVY RAIN  70  70 100 NW5       29.59F FOG
LANCASTER      HVY RAIN  69  69 100 NW6       29.62S FOG
COATESVILLE    HVY RAIN  72  72 100 W7G14     29.61F
POTTSTOWN      HVY RAIN  70  70 100 VRB3      29.61F VSB 1
BLUE BELL      CLOUDY    70  70 100 CALM      29.60F
DOYLESTOWN     HVY RAIN  70  70 100 CALM      29.59F FOG
WILLOW GROVE   NOT AVBL
NORTH PHILA    HVY RAIN  78  73  84 SW7       29.59F
PHILADELPHIA   LGT RAIN  78  73  84 SW15G24   29.58F
$$




USA.gov is the U.S. government's official web portal to all federal, state and local government web resources and services.